Imperial, NE

3:01 AM MDT on July 21, 2017 (GMT -0600)
Imperial Municipal

Weather History for KIML - December, 2014

Change the Weather History Date:

Friday, December 5, 2014

  Actual Average Record
Temperature  
Mean Temperature 41 °F 30 °F  
Max Temperature 58 °F 43 °F 72 °F (1939)
Min Temperature 24 °F 17 °F -16 °F (1909)
Degree Days  
Heating Degree Days 24 35  
Month to date heating degree days 153 172  
Cooling Degree Days 0 0  
Month to date cooling degree days 0 0  
Year to date cooling degree days 955 963  
Moisture  
Dew Point 26 °F    
Average Humidity 59    
Maximum Humidity 85    
Minimum Humidity 32    
Precipitation  
Precipitation 0.00 in 0.02 in 2.10 in (1913)
Sea Level Pressure  
Sea Level Pressure 30.21 in    
Wind  
Wind Speed 9 mph (NNW)    
Max Wind Speed 21 mph    
Max Gust Speed 24 mph    
Visibility 10 miles    
Events      
T = Trace of Precipitation, MM = Missing Value Source: NWS Daily Summary

Daily Weather History Graph

Daily Weather History Graph

Search for Another Location

Airport or City:

Trip Planner

Search our weather history database for the weather conditions in past years. The results will help you decide how hot, cold, wet, or windy it might be!

Date:

Astronomy

Dec. 05, 2014 Rise Set
Actual Time 6:54 AM MST 4:19 PM MST
Civil Twilight 6:24 AM MST 4:50 PM MST
Nautical Twilight 5:49 AM MST 5:24 PM MST
Astronomical Twilight 5:16 AM MST 5:57 PM MST
Moon 4:08 PM MST (12/5) 5:49 AM MST (12/5)
Length of Visible Light 10h 26m
Length of Day
9h 25m
Waxing Gibbous, 99% of the Moon is Illuminated
Dec 5
Waxing Gibbous
Dec 6
Full
Dec 14
Last Quarter
Dec 21
New
Dec 28
First Quarter

Hourly Weather History & Observations

Time (MST) Temp. Windchill Dew Point Humidity Pressure Visibility Wind Dir Wind Speed Gust Speed Precip Events Conditions
12:53 AM 32.0 °F 28.7 °F 21.9 °F 66% 29.96 in 10.0 mi NNW 3.5 mph - N/A   Mostly Cloudy
1:53 AM 30.0 °F 25.2 °F 21.0 °F 69% 29.99 in 10.0 mi WSW 4.6 mph - N/A   Overcast
2:53 AM 32.0 °F 27.5 °F 21.9 °F 66% 30.00 in 10.0 mi West 4.6 mph - N/A   Scattered Clouds
3:53 AM 30.9 °F 24.3 °F 21.9 °F 69% 30.01 in 10.0 mi West 6.9 mph - N/A   Clear
4:53 AM 30.9 °F 24.3 °F 21.9 °F 69% 30.03 in 10.0 mi West 6.9 mph - N/A   Clear
5:53 AM 30.0 °F 24.1 °F 21.9 °F 72% 30.06 in 10.0 mi WNW 5.8 mph - N/A   Clear
6:53 AM 33.1 °F 25.5 °F 25.0 °F 72% 30.11 in 10.0 mi NW 9.2 mph - N/A   Clear
7:53 AM 37.0 °F 29.8 °F 28.0 °F 70% 30.13 in 10.0 mi NW 10.4 mph - N/A   Clear
8:53 AM 44.1 °F 37.7 °F 30.0 °F 58% 30.15 in 10.0 mi NNW 12.7 mph - N/A   Clear
9:53 AM 46.9 °F - 28.9 °F 50% 30.19 in 10.0 mi NNW 16.1 mph - N/A   Clear
10:53 AM 51.1 °F - 28.9 °F 43% 30.18 in 10.0 mi North 15.0 mph - N/A   Clear
11:53 AM 55.0 °F - 30.0 °F 38% 30.17 in 10.0 mi North 18.4 mph - N/A   Clear
12:53 PM 57.0 °F - 30.0 °F 36% 30.16 in 10.0 mi North 16.1 mph - N/A   Clear
1:53 PM 57.9 °F - 28.9 °F 33% 30.18 in 10.0 mi North 17.3 mph - N/A   Clear
2:53 PM 55.9 °F - 27.0 °F 33% 30.23 in 10.0 mi NNE 17.3 mph - N/A   Clear
3:53 PM 52.0 °F - 28.0 °F 40% 30.27 in 10.0 mi NNE 10.4 mph - N/A   Clear
4:53 PM 42.1 °F 36.6 °F 27.0 °F 55% 30.33 in 10.0 mi North 9.2 mph - N/A   Clear
5:53 PM 37.0 °F 31.0 °F 27.0 °F 67% 30.37 in 10.0 mi North 8.1 mph - N/A   Clear
6:53 PM 34.0 °F 27.2 °F 26.1 °F 73% 30.39 in 10.0 mi NNE 8.1 mph - N/A   Clear
7:53 PM 33.1 °F 26.9 °F 26.1 °F 75% 30.41 in 10.0 mi NNE 6.9 mph - N/A   Partly Cloudy
8:53 PM 33.1 °F 30.0 °F 27.0 °F 78% 30.40 in 10.0 mi North 3.5 mph - N/A   Clear
9:53 PM 30.0 °F 25.2 °F 25.0 °F 82% 30.43 in 10.0 mi West 4.6 mph - N/A   Clear
10:53 PM 28.0 °F - 24.1 °F 85% 30.45 in 10.0 mi Calm Calm - N/A   Clear
11:53 PM 25.0 °F - 19.9 °F 81% 30.45 in 10.0 mi Calm Calm - N/A   Clear